Погода в Панама-Сити

США     30°09′30″N   85°39′38″W
темп.,
°C
ветер,
м/с
пор.,
м/с
влажн.,
%
обл.,
%
осадки,
мм/ч
давл.,
гПа
погр.,
м
31 июля, сб
сб3101:00+28з247782 0.9 1015102
04:00+27сз238170 0.4 101565
07:00+28ссз1175100 0.7 101660
10:00+33зюз225188 0.1 10171022
13:00+34юз544910 0.2 10161822
16:00+33юз55545 0.0 1015981
19:00+30зюз46675 0.0 1015805
22:00+28зюз1278100 4.2 101679
1 августа, вс
вс101:00+28юз4781100 4.2 1015344
04:00+28юз378113 0.3 1015277
07:00+28зюз4677100 1.7 1016487
10:00+33зюз445689 1.0 10171143
13:00+34юз545266 1.2 10161465
16:00+33юз555663 0.0 10151273
19:00+28сз1375100 3.6 1015228
22:00+25юв2488100 5.2 1016124
2 августа, пн
пн201:00+28юз3678100 5.2 1015252
04:00+27з3784100 6.9 1014257
07:00+26з1287100 12.6 101584
10:00+28юз2475100 3.5 1015175
13:00+29ю4669100 7.8 1015578
16:00+26юз5782100 2.8 1014558
19:00+25ююз368699 9.3 1013350
22:00+24ссз5108977 1.6 1015398
3 августа, вт
вт301:00+23ююв1186100 3.2 101362
04:00+24ююв1288100 1.8 101276
07:00+24сз1290100 13.1 1013145
10:00+28юз3571100 4.5 1014776
13:00+30зюз5663100 6.1 10141050
16:00+30зюз5561100 0.5 10121187
19:00+28зюз3571100 1.1 1012524
22:00+26зсз1180100 2.2 101371
4 августа, ср
ср401:00+26ююз1182100 2.6 101243
04:00+25зюз238594 2.7 101270
07:00+25зюз3684100 7.1 1013194
10:00+28юз4670100 5.0 1014751
13:00+29ююз4664100 9.5 1014997
16:00+30ююз4663100 3.1 1013977
19:00+27ююз3676100 7.9 1013513
22:00+26ююз3682100 1.1 1013294